Regional Weather Roundup
Issued by NWS

Home | Current Version | Previous Version | Text Only | Print | Product List | Glossary On
Versions: 1 2 3 4 5 6 7 8 9 10 11 12 13 14 15 16 17 18 19 20 21 22 23 24 25 26 27 28 29 30 31 32 33 34 35 36 37 38 39 40 41 42 43 44 45 46 47 48 49 50
000
ASUS45 KTFX 251710
RWRMT
MONTANA REGIONAL WEATHER ROUNDUP
NATIONAL WEATHER SERVICE GREAT FALLS MT
1100 AM MDT SAT MAR 25 2017

NOTE: "FAIR" INDICATES FEW OR NO CLOUDS BELOW 12000 FEET WITH NO
SIGNIFICANT WEATHER AND/OR OBSTRUCTIONS TO VISIBILITY.

MTZ001>007-043-251800-
WEST OF THE DIVIDE

CITY           SKY/WX    TMP DP  RH WIND       PRES   REMARKS
KALISPELL      MOSUNNY   47  31  53 S13       29.99F
MISSOULA       MOSUNNY   45  33  63 SE8       30.05F
BUTTE          SUNNY     40  21  46 VRB5      30.01F
MULLAN PASS    LGT SNOW  29  29 100 VRB3      29.97S VSB 3/4
ANACONDA         N/A     41  23  48 S5        30.02S
DEER LODGE       N/A     43  27  52 CALM      30.04F
EUREKA           N/A     46  34  61 SE13      29.97R
HAMILTON         N/A     43  30  61 S7        30.05F
PLAINS           N/A     47  32  56 S10       30.03F
THOMPSON FALLS   N/A     44  36  73 CALM      30.07F
$$

MTZ008-052>055-251800-
SOUTHWEST MONTANA

CITY           SKY/WX    TMP DP  RH WIND       PRES   REMARKS
BOZEMAN        CLOUDY    44  36  73 CALM      30.02F
DILLON         MOSUNNY   41  28  60 SW6       30.01F
W YELLOWSTONE  LGT SNOW  32  32 100 SW5       30.02F VSB 1
ENNIS          PTSUNNY   41  32  70 NW6       30.06S
THREE FORKS      N/A     45  -9  10 CALM      30.01F
TWIN BRIDGES     N/A     43  30  60 CALM      30.00F
$$

MTZ009-010-012-014-046-048-049-054-251800-
EAST SLOPES AND CENTRAL MONTANA

CITY           SKY/WX    TMP DP  RH WIND       PRES   REMARKS
CUT BANK       PTSUNNY   43  23  45 SW18      29.93S
GREAT FALLS    CLOUDY    48  21  34 SW20      29.96S
MALMSTROM AFB  CLOUDY    49  20  32 SW28G36   29.95F
HELENA         CLOUDY    49  26  41 W12       30.00F
AUGUSTA          N/A     44  18  35 SW9       29.94F
BOWMANS CRNR     N/A     43  22  43 S14       29.94F
CHOTEAU          N/A     46  19  34 SW6       29.96F
CONRAD           N/A     45  28  51 S5        29.98S
FAIRFIELD        N/A     46  19  33 SW13      29.94F
POWER            N/A     45  21  39 SW22      29.94S
RAYNESFORD     PTSUNNY   48  18  30 SW23G32   29.94F
$$

MTZ011-013-016-021-045-047-050-051-251800-
NORTH CENTRAL MONTANA

CITY           SKY/WX    TMP DP  RH WIND       PRES   REMARKS
HAVRE          SUNNY     53  27  36 W24G33    29.92F
LEWISTOWN      CLOUDY    47  20  34 W10       29.96F
N BAR RANCH      N/A     46  21  36 NW13G20   29.98R
CHINOOK          N/A     52  25  35 W22G29    29.92S
DENTON         PTSUNNY   49  21  33 W21       29.92S
FORT BENTON      N/A     52  23  32 MISG      29.97F
GEYSER         PTSUNNY   47  19  33 W15G21    29.95S
GRASS RANGE      N/A     48  23  37 W12       29.93S
STANFORD         N/A     46  19  33 E3        29.95S
WINIFRED         N/A     48  25  40 W9        29.94F
$$

MTZ017>020-022>027-061-062-251800-
NORTHEAST MONTANA

CITY           SKY/WX    TMP DP  RH WIND       PRES   REMARKS
GLASGOW        CLOUDY    54  27  35 W22G32    29.90R
JORDAN           N/A     56  24  29 NW17G24   29.93R
SIDNEY         PTSUNNY   57  29  34 NW15      29.90R
WOLF POINT     CLOUDY    55  31  39 W21       29.89S
MALTA          SUNNY     52  27  37 W28G37    29.91R
PLENTYWOOD       N/A     52  28  40 W18       29.84S
POPLAR           N/A     54  28  37 W14G22    29.90R
SCOBEY           N/A     50  26  39 W18       29.86R
$$

MTZ028>42-056>058-251800-
SOUTHCENTRAL AND SOUTHEAST MONTANA

CITY           SKY/WX    TMP DP  RH WIND       PRES   REMARKS
BAKER          CLOUDY    56  32  40 N13       29.93R
BILLINGS       CLOUDY    49  33  54 SW5       29.99R
LIVINGSTON     CLOUDY    43  33  68 NW8       30.00F
MILES CITY     CLOUDY    56  30  37 NW16G22   29.95R
EKALAKA          N/A     53  31  43 N8        29.92R
FORSYTH          N/A     54  30  40 NW6       29.97R
HARLOWTON      PTSUNNY   43  22  43 NW22      29.98F
LAUREL           N/A     48  30  50 CALM      29.98F
ROUNDUP          N/A     48  26  42 W3        29.90R
$$

REGIONAL REPORTS...DAKOTAS

CITY           SKY/WX    TMP DP  RH WIND       PRES   REMARKS
WILLISTON      MOSUNNY   56  34  43 W13G21    29.88R
MINOT          CLOUDY    38  32  79 S16G28    29.91F WCI  29
DICKINSON      CLOUDY    45  32  60 S16       29.90F
BEACH            N/A    N/A N/A N/A MISG        N/A
TIOGA          PTSUNNY   45  41  87 S15G22    29.88S
WATFORD CITY     N/A     54  36  50 W10       29.88F
BISMARCK       CLOUDY    36  32  85 S18       30.05S WCI  26
GRAND FORKS    CLOUDY    38  33  82 S17G24    30.15S WCI  28
FARGO          CLOUDY    36  32  85 SE12      30.17F WCI  28
BUFFALO SD       N/A     50  33  52 CALM      29.86S
RAPID CITY     CLOUDY    56  33  42 SE13      29.91F
$$

REGIONAL REPORTS...WYOMING/IDAHO/WASHINGTON

CITY           SKY/WX    TMP DP  RH WIND       PRES   REMARKS
GILLETTE       MOSUNNY   56  31  38 N14       29.95S
SHERIDAN       CLOUDY    51  35  54 NW13      30.00R
BUFFALO WY     CLOUDY    53  31  42 N20G26    29.99S
CODY           CLOUDY    46  32  58 N16       29.98F
YELLOWSTONE LA   N/A     34  30  85 VRB3      30.02F
IDAHO FALLS    CLOUDY    42  37  82 SW16      30.04S
SALMON         CLOUDY    41  30  65 CALM      30.05F
BOISE          MOSUNNY   47  38  71 CALM      30.09F
SPOKANE        PTSUNNY   42  36  79 SW14      30.04S
$$

REGIONAL REPORTS...ALBERTA

CITY           SKY/WX    TMP DP  RH WIND       PRES   REMARKS
EDMONTON       CLOUDY    32  28  86 SW3       29.75R
CALGARY        PTSUNNY   46  19  34 S8        29.78S
LETHBRIDGE     PTSUNNY   50  25  37 SW23      29.87F
MEDICINE HAT   MOSUNNY   52  25  35 W15       29.86R
WATERTON GATE    N/A     39  27  60 SW12        N/A  WCI  32
CARDSTON         N/A     46  25  42 SW8         N/A
MILK RIVER       N/A     46  28  49 W10         N/A
ONEFOUR          N/A     48  27  43 W21G26      N/A
$$

REGIONAL REPORTS...SASKATCHEWAN

CITY           SKY/WX    TMP DP  RH WIND       PRES   REMARKS
SWIFT CURRENT  SUNNY     45  34  65 W25G35    29.77R
REGINA         PTSUNNY   50  36  57 SW22G29   29.74S
SASKATOON      CLOUDY    37  34  87 W15G23    29.65R WCI  28
CYPRESS HILLS    N/A     43  19  39 W16G25      N/A
VAL MARIE        N/A     52  25  35 W23G29      N/A
ROCKGLEN         N/A     50  28  43 W16G24      N/A
$$



USA.gov is the U.S. government's official web portal to all federal, state and local government web resources and services.